George, South Africa

8:38 AM SAST on November 18, 2017 (GMT +0200)
George

Weather History for FAGG - June, 2013

Change the Weather History Date:

Monday, June 17, 2013

  Actual Average Record
Temperature  
Mean Temperature 53 °F -  
Max Temperature 65 °F 64 °F 78 °F (2007)
Min Temperature 41 °F 44 °F 41 °F (2013)
Degree Days  
Heating Degree Days 12    
Growing Degree Days 3 (Base 50)    
Moisture  
Dew Point 45 °F    
Average Humidity 74    
Maximum Humidity 88    
Minimum Humidity 44    
Precipitation  
Precipitation 0.00 in - - ()
Sea Level Pressure  
Sea Level Pressure 30.35 in    
Wind  
Wind Speed 4 mph ()    
Max Wind Speed 10 mph    
Max Gust Speed -    
Visibility 12.0 miles    
Events      
Averages and records for this station are not official NWS values.
T = Trace of Precipitation, MM = Missing Value Source: Averaged Metar Reports

Daily Weather History Graph

Daily Weather History Graph

Search for Another Location

Airport or City:

Trip Planner

Search our weather history database for the weather conditions in past years. The results will help you decide how hot, cold, wet, or windy it might be!

Date:

Astronomy

Jun. 17, 2013 Rise Set
Actual Time 7:34 AM SAST 5:28 PM SAST
Civil Twilight 7:06 AM SAST 5:55 PM SAST
Nautical Twilight 6:35 AM SAST 6:27 PM SAST
Astronomical Twilight 6:05 AM SAST 6:57 PM SAST
Moon 12:47 PM SAST (6/17) 12:45 AM SAST (6/17)
Length of Visible Light 10h 49m
Length of Day
9h 53m
First Quarter, 57% of the Moon is Illuminated
Jun 17
First Quarter
Jun 23
Full
Jun 30
Last Quarter
Jul 8
New
Jul 16
First Quarter

Hourly Weather History & Observations

Time (SAST) Temp. Windchill Dew Point Humidity Pressure Visibility Wind Dir Wind Speed Gust Speed Precip Events Conditions
12:00 AM 46.4 °F 45.2 °F 42.8 °F 87% 30.45 in - North 3.5 mph - N/A   Clear
1:00 AM 44.6 °F 42.2 °F 41.0 °F 87% 30.45 in - NNE 4.6 mph - N/A   Clear
2:00 AM 45 °F - 41 °F 81% 30.46 in 12 mi North 2.3 mph - -  
2:00 AM 44.6 °F - 41.0 °F 87% 30.45 in - North 2.3 mph - N/A   Clear
3:00 AM 42.8 °F 40.1 °F 39.2 °F 87% 30.45 in - North 4.6 mph - N/A   Clear
4:00 AM 44.6 °F - 41.0 °F 87% 30.42 in - Calm Calm - N/A   Clear
5:00 AM 44 °F - 41 °F 86% 30.44 in 12 mi NNW 2.3 mph - -  
5:00 AM 44.6 °F - 41.0 °F 87% 30.42 in - North 1.2 mph - N/A   Clear
6:00 AM 42.8 °F 39.3 °F 39.2 °F 87% 30.42 in - NNE 5.8 mph - N/A   Clear
8:00 AM 41 °F - 37 °F 82% 30.43 in 12 mi ENE 3.5 mph - -  
8:00 AM 41.0 °F 39.0 °F 37.4 °F 87% 30.39 in - ENE 3.5 mph - N/A   Clear
9:00 AM 53.6 °F - 44.6 °F 72% 30.42 in - Variable 1.2 mph - N/A   Clear
10:00 AM 55.4 °F - 46.4 °F 72% 30.42 in - East 5.8 mph - N/A   Clear
11:00 AM 61 °F - 47 °F 50% 30.42 in 12 mi ESE 8.1 mph - -  
11:00 AM 60.8 °F - 46.4 °F 59% 30.42 in - ESE 10.4 mph - N/A   Clear
12:00 PM 62.6 °F - 46.4 °F 55% 30.39 in - East 9.2 mph - N/A   Clear
1:00 PM 64.4 °F - 46.4 °F 52% 30.33 in - East 6.9 mph - N/A   Clear
2:00 PM 65 °F - 48 °F 44% 30.32 in 12 mi SE 9.2 mph - -  
2:00 PM 64.4 °F - 48.2 °F 56% 30.30 in - SE 9.2 mph - N/A   Clear
3:00 PM 64.4 °F - 51.8 °F 64% 30.27 in - ESE 8.1 mph - N/A   Clear
4:00 PM 62.6 °F - 53.6 °F 72% 30.27 in - East 5.8 mph - N/A   Clear
5:00 PM 61 °F - 52 °F 65% 30.28 in 12 mi East 4.6 mph - -  
5:00 PM 60.8 °F - 51.8 °F 72% 30.27 in - East 4.6 mph - N/A   Clear
6:00 PM 57.2 °F - 51.8 °F 82% 30.24 in - ENE 5.8 mph - N/A   Clear
7:00 PM 51.8 °F - 48.2 °F 88% 30.24 in - North 4.6 mph - N/A   Clear
8:00 PM 50 °F - 45 °F 76% 30.25 in 12 mi WNW 3.5 mph - -  
8:00 PM 50.0 °F - 44.6 °F 82% 30.24 in - WNW 3.5 mph - N/A   Clear
9:00 PM 50.0 °F - 44.6 °F 82% 30.21 in - North 3.5 mph - N/A   Clear
10:00 PM 51.8 °F - 44.6 °F 76% 30.18 in - Variable 1.2 mph - N/A   Clear
11:00 PM 53.6 °F - 41.0 °F 62% 30.15 in - NE 4.6 mph - N/A   Clear